Юрибей

Россия / Ямало-Ненецкий автономный округ     71°05′42″N   76°55′25″E
темп.,
°C
ветер,
м/с
пор.,
м/с
влажн.,
%
обл.,
%
осадки,
мм/ч
давл.,
гПа
погр.,
м
23 октября, сб
сб2323:00−8вюв5994100 0.0 998285
02:00−9в5894100 0.0 996279
05:00−9в4894100 0.0 994281
08:00−10в479499 0.0 993228
11:00−10в369478 0.0 992222
14:00−11в369456 0.0 992186
17:00−13в479585 0.0 991152
20:00−13в4796100 0.0 991138
24 октября, вс
вс2423:00−13в479579 0.0 990147
02:00−13в4895100 0.0 990172
05:00−12всв5993100 0.0 989208
08:00−11всв5994100 0.0 989229
11:00−10всв6994100 0.1 989252
14:00−8всв6109492 0.4 989279
17:00−8всв5109599 0.9 990278
20:00−7всв5995100 0.7 990307
25 октября, пн
пн2523:00−7всв6995100 1.6 990327
02:00−8всв5995100 1.1 991329
05:00−9всв5895100 2.4 992325
08:00−9св4695100 1.2 992333
11:00−10св3595100 2.4 993317
14:00−10ссв3495100 1.1 994262
17:00−10с2396100 2.1 994256
20:00−10ссз2496100 0.8 995285
26 октября, вт
вт2623:00−10зсз3596100 1.6 996300
02:00−10з2496100 0.6 997212
05:00−10зюз3496100 1.1 998159
08:00−10юз3496100 0.3 998122
11:00−9юз2296100 0.6 99998
14:00−9ю359690 0.4 99990
17:00−11ююз489782 0.6 999133
20:00−13ююз369888 0.1 100075
27 октября, ср
ср2723:00−14ююз349892 0.3 100057
02:00−14ю229888 0.2 99925
05:00−15зсз019886 0.3 99916
08:00−16с2210076 0.1 99811
11:00−17ссз2210071 0.1 99823
14:00−17ссз3310074 0.0 99923
17:00−16сз349837 0.0 100040
20:00−16сз2210075 0.0 100015